This demonstration page uses our WeatherBlox Daily Observations layout. Learn more.

Left ArrowRight Arrow

Hourly Observations for September 28, 2015

Temp ( °F °C ) Dew Point ( °F °C ) Humidity (%) Winds ( mph kmh ) Pressure ( in mb ) Visibility ( mi km ) Precip ( " mm )
12:53 am 00:53 Clear 67 19.4 47 8.3 49 49 Calm 29.79 1009 10 16 0.00 0.00
1:53 am 01:53 Clear 64 17.8 47 8.3 54 54 NNW 3 6 29.80 1009 10 16 0.00 0.00
2:53 am 02:53 Clear 63 17.2 46 7.8 54 54 Calm 29.81 1009 10 16 0.00 0.00
3:53 am 03:53 Clear 63 17.2 45 7.2 52 52 N 5 7 29.80 1009 10 16 0.00 0.00
4:53 am 04:53 Clear 62 16.7 47 8.3 58 58 Calm 29.81 1009 10 16 0.00 0.00
5:53 am 05:53 Clear 60 15.6 46 7.8 60 60 Calm 29.82 1010 10 16 0.00 0.00
6:53 am 06:53 Clear 58 14.4 46 7.8 65 65 N 3 6 29.83 1010 10 16 0.00 0.00
7:53 am 07:53 Sunny 62 16.7 48 8.9 60 60 Calm 29.85 1011 10 16 0.00 0.00
8:53 am 08:53 Sunny 70 21.1 46 7.8 42 42 N 5 7 29.86 1011 10 16 0.00 0.00
9:53 am 09:53 Sunny 77 25 45 7.2 32 32 NNW 3 6 29.85 1011 10 16 0.00 0.00
10:53 am 10:53 Sunny 82 27.8 45 7.2 27 27 NW 3 6 29.85 1011 10 16 0.00 0.00
11:53 am 11:53 Sunny 87 30.6 44 6.7 22 22 Calm 29.84 1010 10 16 0.00 0.00
12:53 pm 12:53 Sunny 89 31.7 41 5 19 19 S 5 7 29.83 1010 10 16 0.00 0.00
1:53 pm 13:53 Sunny 92 33.3 40 4.4 16 16 S 7 11 29.80 1009 10 16 0.00 0.00
2:53 pm 14:53 Sunny 92 33.3 39 3.9 16 16 SW 6 9 29.78 1008 10 16 0.00 0.00
3:53 pm 15:53 Sunny 94 34.4 34 1.1 12 12 SSE 13 20 29.76 1008 10 16 0.00 0.00
4:53 pm 16:53 Sunny 93 33.9 35 1.7 13 13 SSE 14 22 29.75 1008 10 16 0.00 0.00
5:53 pm 17:53 Sunny 91 32.8 37 2.8 15 15 SSE 10 17 29.75 1008 10 16 0.00 0.00
6:53 pm 18:53 Sunny 84 28.9 41 5 22 22 SSE 6 9 29.77 1008 10 16 0.00 0.00
7:53 pm 19:53 Clear 80 26.7 43 6.1 27 27 S 3 6 29.78 1008 10 16 0.00 0.00
8:53 pm 20:53 Clear 73 22.8 42 5.6 33 33 NE 5 7 29.80 1009 10 16 0.00 0.00
9:53 pm 21:53 Clear 75 23.9 40 4.4 28 28 N 7 11 29.81 1010 10 16 0.00 0.00
10:53 pm 22:53 Clear 71 21.7 41 5 34 34 N 3 6 29.83 1010 10 16 0.00 0.00
11:53 pm 23:53 Clear 67 19.4 42 5.6 41 41 Calm 29.83 1010 10 16 0.00 0.00

Powered by AerisWeather